Weather History for Shemya, AK

Change the Weather History Date:

Wednesday, November 5, 2014

  Actual Average Record
Temperature  
Mean Temperature 42 °F -  
Max Temperature 46 °F 41 °F 47 °F (1966)
Min Temperature 37 °F 34 °F 26 °F (1966)
Degree Days  
Heating Degree Days 24    
Moisture  
Dew Point 30 °F    
Average Humidity 64    
Maximum Humidity 86    
Minimum Humidity 35    
Precipitation  
Precipitation 0.00 in - - ()
Sea Level Pressure  
Sea Level Pressure 29.48 in    
Wind  
Wind Speed 21 mph (WNW)    
Max Wind Speed 33 mph    
Max Gust Speed 46 mph    
Visibility 10 miles    
Events Rain    
Averages and records for this station are not official NWS values.
T = Trace of Precipitation, MM = Missing Value Source: NWS Daily Summary

Daily Weather History Graph

Daily Weather History Graph

Search for Another Location

Airport:

Trip Planner

Search our weather history database for the weather conditions in past years. The results will help you decide how hot, cold, wet, or windy it might be!

Date:

Astronomy

Nov. 04, 2014 Rise Set
Actual Time 9:26 AM HAST 6:46 PM HAST
Civil Twilight 8:49 AM HAST 7:23 PM HAST
Nautical Twilight 8:08 AM HAST 8:04 PM HAST
Astronomical Twilight 7:29 AM HAST 8:44 PM HAST
Moon 6:29 PM HAST (11/5) 8:00 AM HAST (11/5)
Length of Visible Light 10h 33m
Length of Day
9h 20m
Waxing Gibbous, 99% of the Moon is Illuminated
Nov 5
Waxing Gibbous
Nov 6
Full
Nov 14
Last Quarter
Nov 22
New
Nov 29
First Quarter

Hourly Weather History & Observations

Time (HAST) Temp. Windchill Dew Point Humidity Pressure Visibility Wind Dir Wind Speed Gust Speed Precip Events Conditions
12:56 AM 41.0 °F 30.9 °F 36.0 °F 82% 29.31 in 10.0 mi West 24.2 mph 28.8 mph N/A   Mostly Cloudy
1:56 AM 39.9 °F 30.2 °F 34.0 °F 79% 29.31 in 10.0 mi West 20.7 mph 27.6 mph N/A   Mostly Cloudy
2:56 AM 41.0 °F 32.5 °F 35.1 °F 79% 29.32 in 10.0 mi West 17.3 mph - N/A   Scattered Clouds
3:56 AM 39.9 °F 30.2 °F 35.1 °F 83% 29.33 in 10.0 mi West 20.7 mph 27.6 mph N/A   Mostly Cloudy
4:56 AM 39.9 °F 31.1 °F 34.0 °F 79% 29.34 in 10.0 mi West 17.3 mph - N/A   Clear
5:56 AM 41.0 °F 32.2 °F 35.1 °F 79% 29.35 in 10.0 mi West 18.4 mph - N/A   Clear
6:56 AM 42.1 °F 33.6 °F 35.1 °F 76% 29.36 in 10.0 mi West 18.4 mph - N/A   Clear
7:56 AM 39.0 °F 30.3 °F 30.9 °F 73% 29.37 in 9.0 mi West 16.1 mph 38.0 mph N/A Rain Light Rain
8:56 AM 37.9 °F 30.0 °F 34.0 °F 86% 29.39 in 10.0 mi WNW 12.7 mph - N/A   Partly Cloudy
9:56 AM 39.9 °F 32.1 °F 34.0 °F 79% 29.42 in 10.0 mi West 13.8 mph - N/A   Partly Cloudy
10:56 AM 39.9 °F 27.8 °F 32.0 °F 73% 29.46 in 10.0 mi WNW 33.4 mph 46.0 mph N/A Rain Light Rain
11:56 AM 43.0 °F 33.5 °F 34.0 °F 71% 29.46 in 10.0 mi WNW 24.2 mph 31.1 mph N/A   Scattered Clouds
12:56 PM 44.1 °F 35.0 °F 30.9 °F 60% 29.49 in 10.0 mi WNW 24.2 mph - N/A   Clear
1:56 PM 46.0 °F 38.0 °F 28.0 °F 50% 29.51 in 10.0 mi WNW 21.9 mph 31.1 mph N/A   Partly Cloudy
2:56 PM 46.0 °F 37.6 °F 21.0 °F 37% 29.52 in 10.0 mi WNW 24.2 mph - N/A   Clear
3:56 PM 46.0 °F 39.3 °F 19.9 °F 35% 29.53 in 10.0 mi West 16.1 mph - N/A   Clear
4:56 PM 45.0 °F 38.5 °F 19.0 °F 36% 29.55 in 10.0 mi WNW 13.8 mph - N/A   Clear
5:56 PM 43.0 °F 32.4 °F 24.1 °F 47% 29.57 in 10.0 mi NW 31.1 mph 36.8 mph N/A   Clear
6:56 PM 42.1 °F 31.7 °F 24.1 °F 49% 29.60 in 10.0 mi WNW 27.6 mph 34.5 mph N/A   Clear
7:56 PM 41.0 °F 31.9 °F 28.0 °F 60% 29.64 in 10.0 mi West 19.6 mph - N/A   Clear
8:56 PM 41.0 °F 31.4 °F 28.0 °F 60% 29.68 in 10.0 mi WNW 21.9 mph 27.6 mph N/A   Scattered Clouds
9:56 PM 39.0 °F 30.3 °F 28.9 °F 67% 29.70 in 10.0 mi WNW 16.1 mph - N/A   Clear
10:56 PM 39.9 °F 30.5 °F 32.0 °F 73% 29.72 in 10.0 mi West 19.6 mph 26.5 mph N/A   Mostly Cloudy
11:56 PM 39.0 °F 30.3 °F 30.0 °F 70% 29.73 in 10.0 mi West 16.1 mph - N/A   Partly Cloudy